Flight Track Log - Related Links

Times and Time Zones

All times are in EDT time to prevent confusion due to time zone crossing. See the SKW7363 flight status page for this flight to view local times or setup timezone preferences in your user account.

Time Position Orientation Groundspeed Altitude Reporting Facility
EDT Latitude Longitude Course Direction KTS MPH feet Rate Location/Type
Sat 05:34:55 PM 40.7803 -111.9994 50° Northeast 159 183 4,800  Level Salt Lake Center
Sat 05:36:08 PM 40.7606 -112.0742 251° West 232 267 7,000 2,149 Climbing Salt Lake Center
Sat 05:37:00 PM 40.9859 -112.2333 North  Level FlightAware Approximate
Sat 05:37:09 PM 40.8150 -112.1436 316° Northwest 274 315 9,600  Level Salt Lake Center
Sat 05:38:00 PM 41.0258 -112.0909 37° Northeast  Level FlightAware Approximate
Sat 05:38:04 PM 40.8683 -112.2078 318° Northwest 280 322 11,900  Level Salt Lake Center
Sat 05:38:59 PM 40.9444 -112.2333 346° North 320 368 13,300 1,774 Climbing Salt Lake Center
Sat 05:39:00 PM 41.1082 -111.9777 50° Northeast  Level FlightAware Approximate
Sat 05:39:59 PM 41.0164 -112.1494 41° Northeast 348 400 15,300  Level Salt Lake Center
Sat 05:40:00 PM 41.1905 -111.8483 50° Northeast  Level FlightAware Approximate
Sat 05:41:06 PM 41.0836 -112.0414 50° Northeast 355 409 17,400  Level Salt Lake Center
Sat 05:42:32 PM 41.1750 -111.9003 49° Northeast 363 418 19,800 1,581 Climbing Salt Lake Center
Sat 05:43:34 PM 41.2772 -111.8556 18° North 379 436 21,300 1,500 Climbing Salt Lake Center
Sat 05:44:36 PM 41.3819 -111.8128 17° North 391 450 22,900 1,210 Climbing Salt Lake Center
Sat 05:45:38 PM 41.4881 -111.7692 17° North 402 463 23,800 1,122 Climbing Salt Lake Center
Sat 05:46:39 PM 41.5994 -111.7244 17° North 415 478 25,200 1,415 Climbing Salt Lake Center
Sat 05:47:41 PM 41.7289 -111.6539 22° Northeast 419 482 26,700 871 Climbing Salt Lake Center
Sat 05:48:43 PM 41.8297 -111.5667 33° Northeast 429 494 27,000 145 Climbing Salt Lake Center
Sat 05:49:45 PM 41.9361 -111.4711 34° Northeast 456 525 27,000  Level Salt Lake Center
Sat 05:50:47 PM 42.0461 -111.3728 34° Northeast 471 542 27,000  Level Salt Lake Center
Sat 05:51:48 PM 42.1522 -111.2753 34° Northeast 465 535 27,000  Level Salt Lake Center
Sat 05:52:50 PM 42.2567 -111.1814 34° Northeast 455 524 27,000  Level Salt Lake Center
Sat 05:53:52 PM 42.3597 -111.0872 34° Northeast 449 517 27,000  Level Salt Lake Center
Sat 05:54:53 PM 42.4842 -110.9747 34° Northeast 447 514 27,000  Level Salt Lake Center
Sat 05:55:55 PM 42.5786 -110.8872 34° Northeast 444 511 27,000  Level Salt Lake Center
Sat 05:56:57 PM 42.6936 -110.7822 34° Northeast 444 511 27,000  Level Salt Lake Center
Sat 05:57:59 PM 42.7875 -110.6947 34° Northeast 454 522 27,000  Level Salt Lake Center
Sat 05:59:00 PM 42.9017 -110.5869 35° Northeast 450 518 27,000  Level Salt Lake Center
Sat 06:00:02 PM 42.9992 -110.4994 33° Northeast 444 511 27,000  Level Salt Lake Center
Sat 06:01:03 PM 43.1142 -110.3886 35° Northeast 452 520 27,000  Level Salt Lake Center
Sat 06:02:05 PM 43.2122 -110.2986 34° Northeast 446 513 27,000  Level Salt Lake Center
Sat 06:03:07 PM 43.3211 -110.1917 36° Northeast 463 533 27,000  Level Salt Lake Center
Sat 06:04:08 PM 43.4367 -110.0808 35° Northeast 454 522 27,000 -195 Level Salt Lake Center
Sat 06:05:10 PM 43.5267 -109.9958 34° Northeast 448 516 26,600 -1,610 Descending Salt Lake Center
Sat 06:06:11 PM 43.6497 -109.8789 35° Northeast 479 551 23,700 -2,439 Descending Salt Lake Center
Sat 06:07:13 PM 43.7536 -109.7794 35° Northeast 478 550 21,600 -2,293 Descending Salt Lake Center
Sat 06:08:14 PM 43.8631 -109.6722 35° Northeast 427 491 19,000 -2,585 Descending Salt Lake Center
Sat 06:09:16 PM 43.9500 -109.5883 35° Northeast 409 471 16,300 -1,512 Descending Salt Lake Center
Sat 06:10:17 PM 44.0456 -109.4956 35° Northeast 387 445 15,900 -634 Descending Salt Lake Center
Sat 06:11:19 PM 44.1222 -109.4219 35° Northeast 374 430 15,000 -439 Descending Salt Lake Center
Sat 06:12:20 PM 44.1983 -109.3472 35° Northeast 346 398 15,000  Level Salt Lake Center
Sat 06:13:22 PM 44.2650 -109.2803 36° Northeast 312 359 15,000  Level Salt Lake Center
Sat 06:14:23 PM 44.3281 -109.2158 36° Northeast 288 331 15,000 -1,610 Level Salt Lake Center
Sat 06:15:25 PM 44.3981 -109.1214 44° Northeast 294 338 11,700 -3,122 Descending Salt Lake Center
Sat 06:16:26 PM 44.4528 -109.0292 50° Northeast 303 349 8,600 -1,902 Descending Salt Lake Center
Sat 06:17:28 PM 44.5003 -108.9414 53° Northeast 295 339 7,800 -878 Descending Salt Lake Center
Sat 06:18:29 PM 44.5408 -108.9383 North 226 260 6,800 -927 Descending Salt Lake Center
Sat 06:19:31 PM 44.5531 -108.9992 286° West 189 217 5,900 -871 Descending Salt Lake Center

Login

Don't have an account? Register now (free) for customized features, flight alerts, and more!